(°C)
(°C)
-7°
-7°
-7°
-6°
-6°
-6°
-6°
Δ
Δ
Δ
Δ
Δ
Δ
ΔΒΔ
(χλμ / ω)
30-44
30-45
31-48
29-48
28-48
25-44
24-37
(χιλιοστά)
0
0
0
0
0
0
0
(%)
0
0
5
0
6
5
7

Ανύψωση ήλιου

/ -60°
sun-icon
UV 1
07:49
16:37
Φθίνων αμφίκυρτος (φάση σελήνης) (209°)
19:10
09:35

METAR για 50.1°Β 14.27°Α (LKPR)

Χρόνος Συνθήκες Θερμοκρασία/
Σημείο δρόσου
Άνεμος Ορατότητα Καιρός Νέφη Πίεση Αλλαγή Ανεπεξέργαστο
MVFR 2°C / -2°C 270º 16kt >10km - Broken Clouds 2500ft
Overcast 4000ft
1016 No Significant change LKPR 192230Z 27016KT 9999 BKN025 OVC040 02/M02 Q1016 NOSIG
MVFR 2°C / -2°C 260º 16kt Gust 26kt >10km - Overcast 2400ft 1016 No Significant change LKPR 192200Z 26016G26KT 9999 OVC024 02/M02 Q1016 NOSIG
MVFR 2°C / -2°C 240º 15kt >10km - Overcast 2800ft 1016 No Significant change LKPR 192130Z 24015KT 9999 OVC028 02/M02 Q1016 NOSIG
VFR 2°C / -2°C 250º 14kt >10km - Broken Clouds 3500ft 1016 No Significant change LKPR 192100Z 25014KT 9999 BKN035 02/M02 Q1016 NOSIG
MVFR 1°C / -2°C 230º 11kt >10km - Broken Clouds 2400ft 1017 No Significant change LKPR 192030Z 23011KT 9999 BKN024 01/M02 Q1017 NOSIG
MVFR 1°C / -2°C 240º 12kt >10km - Broken Clouds 2500ft 1017 No Significant change LKPR 192000Z 24012KT 9999 BKN025 01/M02 Q1017 NOSIG
MVFR 1°C / -2°C 240º 14kt >10km - Broken Clouds 1800ft 1018 No Significant change LKPR 191930Z 24014KT 9999 BKN018 01/M02 Q1018 NOSIG
MVFR 1°C / -2°C 240º 13kt >10km - Broken Clouds 2100ft 1018 No Significant change LKPR 191900Z 24013KT 9999 BKN021 01/M02 Q1018 NOSIG
MVFR 1°C / -2°C 240º 13kt >10km - Broken Clouds 1800ft 1018 No Significant change LKPR 191830Z 24013KT 9999 BKN018 01/M02 Q1018 NOSIG
MVFR 1°C / -2°C 240º 13kt >10km - Broken Clouds 1800ft 1018 No Significant change LKPR 191800Z 24013KT 9999 BKN018 01/M02 Q1018 NOSIG
MVFR 1°C / -2°C 220º 17kt >10km - Few Clouds 1900ft
Broken Clouds 2100ft
1018 No Significant change LKPR 191730Z 22017KT 9999 FEW019 BKN021 01/M02 Q1018 NOSIG
MVFR 1°C / -1°C 200º 9kt >10km - Broken Clouds 2100ft 1019 No Significant change LKPR 191700Z 20009KT 9999 BKN021 01/M01 Q1019 NOSIG
MVFR 0°C / -1°C 160º 6kt >10km - Broken Clouds 2300ft 1019 No Significant change LKPR 191630Z 16006KT 9999 BKN023 00/M01 Q1019 NOSIG
VFR -1°C / -2°C 140º 6kt >10km - Few Clouds 2500ft 1020 No Significant change LKPR 191600Z 14006KT 9999 FEW025 M01/M02 Q1020 NOSIG
VFR 0°C / -2°C 150º 5kt >10km - Few Clouds 1500ft 1020 No Significant change LKPR 191530Z 15005KT 9999 FEW015 00/M02 Q1020 NOSIG
VFR 1°C / -2°C 160º 6kt >10km - Few Clouds 1500ft 1020 No Significant change LKPR 191500Z 16006KT 9999 FEW015 01/M02 Q1020 NOSIG
VFR 1°C / -2°C 140º 6kt >10km - Few Clouds 1400ft 1021 No Significant change LKPR 191430Z 14006KT 9999 FEW014 01/M02 Q1021 NOSIG
VFR 2°C / -1°C 140º 6kt >10km - Few Clouds 1400ft 1021 No Significant change LKPR 191400Z 14006KT 9999 FEW014 02/M01 Q1021 NOSIG
VFR 1°C / -2°C 150º variable 120º to 190º 5kt >10km - Scattered Clouds 1300ft 1022 No Significant change LKPR 191330Z 15005KT 120V190 9999 SCT013 01/M02 Q1022 NOSIG
VFR 1°C / -2°C 110º variable 070º to 160º 4kt >10km - Scattered Clouds 1300ft 1023 No Significant change LKPR 191300Z 11004KT 070V160 9999 SCT013 01/M02 Q1023 NOSIG
MVFR 0°C / -2°C 200º variable 160º to 250º 3kt >10km - Broken Clouds 1200ft 1023 Temporary: Scattered Clouds 1400ft. LKPR 191230Z 20003KT 160V250 9999 BKN012 00/M02 Q1023 TEMPO SCT014
MVFR 0°C / -2°C 200º variable 150º to 240º 4kt >10km - Broken Clouds 1100ft 1024 Temporary: Scattered Clouds 1400ft. LKPR 191200Z 20004KT 150V240 9999 BKN011 00/M02 Q1024 TEMPO SCT014
MVFR 0°C / -2°C 210º variable 170º to 250º 6kt >10km - Broken Clouds 1000ft 1025 Temporary: Scattered Clouds 1400ft. LKPR 191130Z 21006KT 170V250 9999 BKN010 00/M02 Q1025 TEMPO SCT014
MVFR 0°C / -2°C 220º 6kt >10km - Overcast 1000ft 1026 Temporary: Scattered Clouds 1400ft. LKPR 191100Z 22006KT 9999 OVC010 M00/M02 Q1026 TEMPO SCT014

MVFR

2°C / -2°C

[Περισσότερο]
Άνεμος 270º 16kt
Ορατότητα >10km
Καιρός -
Νέφη Broken Clouds 2500ft
Overcast 4000ft
Πίεση 1016
Αλλαγή No Significant change
Ανεπεξέργαστο LKPR 192230Z 27016KT 9999 BKN025 OVC040 02/M02 Q1016 NOSIG

MVFR

2°C / -2°C

[Περισσότερο]
Άνεμος 260º 16kt Gust 26kt
Ορατότητα >10km
Καιρός -
Νέφη Overcast 2400ft
Πίεση 1016
Αλλαγή No Significant change
Ανεπεξέργαστο LKPR 192200Z 26016G26KT 9999 OVC024 02/M02 Q1016 NOSIG

MVFR

2°C / -2°C

[Περισσότερο]
Άνεμος 240º 15kt
Ορατότητα >10km
Καιρός -
Νέφη Overcast 2800ft
Πίεση 1016
Αλλαγή No Significant change
Ανεπεξέργαστο LKPR 192130Z 24015KT 9999 OVC028 02/M02 Q1016 NOSIG

VFR

2°C / -2°C

[Περισσότερο]
Άνεμος 250º 14kt
Ορατότητα >10km
Καιρός -
Νέφη Broken Clouds 3500ft
Πίεση 1016
Αλλαγή No Significant change
Ανεπεξέργαστο LKPR 192100Z 25014KT 9999 BKN035 02/M02 Q1016 NOSIG

MVFR

1°C / -2°C

[Περισσότερο]
Άνεμος 230º 11kt
Ορατότητα >10km
Καιρός -
Νέφη Broken Clouds 2400ft
Πίεση 1017
Αλλαγή No Significant change
Ανεπεξέργαστο LKPR 192030Z 23011KT 9999 BKN024 01/M02 Q1017 NOSIG

MVFR

1°C / -2°C

[Περισσότερο]
Άνεμος 240º 12kt
Ορατότητα >10km
Καιρός -
Νέφη Broken Clouds 2500ft
Πίεση 1017
Αλλαγή No Significant change
Ανεπεξέργαστο LKPR 192000Z 24012KT 9999 BKN025 01/M02 Q1017 NOSIG

MVFR

1°C / -2°C

[Περισσότερο]
Άνεμος 240º 14kt
Ορατότητα >10km
Καιρός -
Νέφη Broken Clouds 1800ft
Πίεση 1018
Αλλαγή No Significant change
Ανεπεξέργαστο LKPR 191930Z 24014KT 9999 BKN018 01/M02 Q1018 NOSIG

MVFR

1°C / -2°C

[Περισσότερο]
Άνεμος 240º 13kt
Ορατότητα >10km
Καιρός -
Νέφη Broken Clouds 2100ft
Πίεση 1018
Αλλαγή No Significant change
Ανεπεξέργαστο LKPR 191900Z 24013KT 9999 BKN021 01/M02 Q1018 NOSIG

MVFR

1°C / -2°C

[Περισσότερο]
Άνεμος 240º 13kt
Ορατότητα >10km
Καιρός -
Νέφη Broken Clouds 1800ft
Πίεση 1018
Αλλαγή No Significant change
Ανεπεξέργαστο LKPR 191830Z 24013KT 9999 BKN018 01/M02 Q1018 NOSIG

MVFR

1°C / -2°C

[Περισσότερο]
Άνεμος 240º 13kt
Ορατότητα >10km
Καιρός -
Νέφη Broken Clouds 1800ft
Πίεση 1018
Αλλαγή No Significant change
Ανεπεξέργαστο LKPR 191800Z 24013KT 9999 BKN018 01/M02 Q1018 NOSIG

MVFR

1°C / -2°C

[Περισσότερο]
Άνεμος 220º 17kt
Ορατότητα >10km
Καιρός -
Νέφη Few Clouds 1900ft
Broken Clouds 2100ft
Πίεση 1018
Αλλαγή No Significant change
Ανεπεξέργαστο LKPR 191730Z 22017KT 9999 FEW019 BKN021 01/M02 Q1018 NOSIG

MVFR

1°C / -1°C

[Περισσότερο]
Άνεμος 200º 9kt
Ορατότητα >10km
Καιρός -
Νέφη Broken Clouds 2100ft
Πίεση 1019
Αλλαγή No Significant change
Ανεπεξέργαστο LKPR 191700Z 20009KT 9999 BKN021 01/M01 Q1019 NOSIG

MVFR

0°C / -1°C

[Περισσότερο]
Άνεμος 160º 6kt
Ορατότητα >10km
Καιρός -
Νέφη Broken Clouds 2300ft
Πίεση 1019
Αλλαγή No Significant change
Ανεπεξέργαστο LKPR 191630Z 16006KT 9999 BKN023 00/M01 Q1019 NOSIG

VFR

-1°C / -2°C

[Περισσότερο]
Άνεμος 140º 6kt
Ορατότητα >10km
Καιρός -
Νέφη Few Clouds 2500ft
Πίεση 1020
Αλλαγή No Significant change
Ανεπεξέργαστο LKPR 191600Z 14006KT 9999 FEW025 M01/M02 Q1020 NOSIG

VFR

0°C / -2°C

[Περισσότερο]
Άνεμος 150º 5kt
Ορατότητα >10km
Καιρός -
Νέφη Few Clouds 1500ft
Πίεση 1020
Αλλαγή No Significant change
Ανεπεξέργαστο LKPR 191530Z 15005KT 9999 FEW015 00/M02 Q1020 NOSIG

VFR

1°C / -2°C

[Περισσότερο]
Άνεμος 160º 6kt
Ορατότητα >10km
Καιρός -
Νέφη Few Clouds 1500ft
Πίεση 1020
Αλλαγή No Significant change
Ανεπεξέργαστο LKPR 191500Z 16006KT 9999 FEW015 01/M02 Q1020 NOSIG

VFR

1°C / -2°C

[Περισσότερο]
Άνεμος 140º 6kt
Ορατότητα >10km
Καιρός -
Νέφη Few Clouds 1400ft
Πίεση 1021
Αλλαγή No Significant change
Ανεπεξέργαστο LKPR 191430Z 14006KT 9999 FEW014 01/M02 Q1021 NOSIG

VFR

2°C / -1°C

[Περισσότερο]
Άνεμος 140º 6kt
Ορατότητα >10km
Καιρός -
Νέφη Few Clouds 1400ft
Πίεση 1021
Αλλαγή No Significant change
Ανεπεξέργαστο LKPR 191400Z 14006KT 9999 FEW014 02/M01 Q1021 NOSIG

VFR

1°C / -2°C

[Περισσότερο]
Άνεμος 150º variable 120º to 190º 5kt
Ορατότητα >10km
Καιρός -
Νέφη Scattered Clouds 1300ft
Πίεση 1022
Αλλαγή No Significant change
Ανεπεξέργαστο LKPR 191330Z 15005KT 120V190 9999 SCT013 01/M02 Q1022 NOSIG

VFR

1°C / -2°C

[Περισσότερο]
Άνεμος 110º variable 070º to 160º 4kt
Ορατότητα >10km
Καιρός -
Νέφη Scattered Clouds 1300ft
Πίεση 1023
Αλλαγή No Significant change
Ανεπεξέργαστο LKPR 191300Z 11004KT 070V160 9999 SCT013 01/M02 Q1023 NOSIG

MVFR

0°C / -2°C

[Περισσότερο]
Άνεμος 200º variable 160º to 250º 3kt
Ορατότητα >10km
Καιρός -
Νέφη Broken Clouds 1200ft
Πίεση 1023
Αλλαγή Temporary: Scattered Clouds 1400ft.
Ανεπεξέργαστο LKPR 191230Z 20003KT 160V250 9999 BKN012 00/M02 Q1023 TEMPO SCT014

MVFR

0°C / -2°C

[Περισσότερο]
Άνεμος 200º variable 150º to 240º 4kt
Ορατότητα >10km
Καιρός -
Νέφη Broken Clouds 1100ft
Πίεση 1024
Αλλαγή Temporary: Scattered Clouds 1400ft.
Ανεπεξέργαστο LKPR 191200Z 20004KT 150V240 9999 BKN011 00/M02 Q1024 TEMPO SCT014

MVFR

0°C / -2°C

[Περισσότερο]
Άνεμος 210º variable 170º to 250º 6kt
Ορατότητα >10km
Καιρός -
Νέφη Broken Clouds 1000ft
Πίεση 1025
Αλλαγή Temporary: Scattered Clouds 1400ft.
Ανεπεξέργαστο LKPR 191130Z 21006KT 170V250 9999 BKN010 00/M02 Q1025 TEMPO SCT014

MVFR

0°C / -2°C

[Περισσότερο]
Άνεμος 220º 6kt
Ορατότητα >10km
Καιρός -
Νέφη Overcast 1000ft
Πίεση 1026
Αλλαγή Temporary: Scattered Clouds 1400ft.
Ανεπεξέργαστο LKPR 191100Z 22006KT 9999 OVC010 M00/M02 Q1026 TEMPO SCT014

TAF για 50.1°Β 14.27°Α (LKPR)

From till


From till Wind 210º 10kt. Visibility 10km or more. Broken Clouds 2500ft.
Becoming from till Wind 230º 14kt. Visibility 10km or more. Broken Clouds 1700ft.
Temporarly from till Wind 250º 18kt. Gust 30kt.
Temporarly from till Visibility 2700m. Showers Snow . Broken Clouds 1100ft.
Becoming from till Wind 310º 16kt. Visibility 10km or more. Broken Clouds 1700ft.
Temporarly from till Wind 300º 18kt. Gust 30kt.
With 30% probability, Temporarly from till Visibility 1200m. Thunderstorm Snow . Broken Clouds 700ft.

Ανεπεξέργαστο: TAF LKPR 191700Z 1918/2100 21010KT 9999 BKN025 BECMG 1918/1920 23014KT 9999 BKN017 TEMPO 1921/2004 25018G30KT TEMPO 2003/2100 2700 SHSN BKN011TCU BECMG 2004/2006 31016KT TEMPO 2006/2100 30018G30KT PROB30 TEMPO 2008/2016 1200 TSSN BKN007CB

Ραντάρ και πρόγνωση υετού μικρής δειάρκειας για 50.1°Β 14.27°Α

Ψιλοβρέχει
Φως
Μέτρια
Βαριά
Πολύ βαρύ
Χαλάζι

Ο δείκτης θέσης τοποθετείται στο 50.1°Β 14.27°Α. Αυτή η κινούμενη εικόνα δείχνει την ραντάρ βροχόπτωσης για την τελευταία ώρα, καθώς και 1πρόγνωση h. Το ψιλόβροχο ή το ελαφρύ χιόνι μπορεί να είναι αόρατο για το ραντάρ. Η ένταση της βροχόπτωσης είναι χρωματικά κωδικοποιημένη και κυμαίνεται από γαλάζιο έως πορτοκαλί.

Τρέχουσες εικόνες δορυφόρου και βροχής για 50.1°Β 14.27°Α

Η ένδειξη τοποθεσίας τοποθετείται στο 50.1°Β 14.27°Α. [Περισσότερο]

Οι δορυφορικές εικόνες σε πραγματικό χρόνο συνδυάζουν ορατό φως κατά τη διάρκεια της ημέρας με υπέρυθρη ακτινοβολία κατά τη διάρκεια της νύχτας. Κατά τη διάρκεια της νύχτας, η εικόνα δεν είναι σκοτεινή μιας και η υπέρυθρη ακτινοβολία μπορεί να εντοπίσει τις διαφορές στη θερμοκρασία. Δυστυχώς, είναι δύσκολο να ξεχωρίσουν οι χαμηλές νεφώσεις και η ομίχλη από τις θερμοκρασίες εδάφους και έτσι μπορεί να είναι σχετικά αόρατα κατά τη διάρκεια της νύχτας. Οι εικόνες από τον δορυφόρο Meteosat για την Ευρώπη ενημερώνονται σε πραγματικό χρόνο κάθε 5 λεπτά. Οι εικόνες από τους δορυφόρους GOES-16/GOES-17 (Βόρεια & Λατινική Αμερική) και Himawari (Ασία) ενημερώνονται κάθε 10 λεπτά.

Ο υετός υπολογίζεται από ραντάρ και δορυφόρους. Η εκτιμήση του υετού από δορυφόρους τη νύχτα είναι λιγότερο ακριβής από ό,τι την ημέρα. Με πορτοκαλί σταυροούς οι θέσεις όπου αστραπές εντοπίζονται (για Ευρώπη).

Πνευματική ιδιοκτησία 2022 EUMETSAT / meteoblue. Δεδομένα αστραπών παρεχόμενα από nowcast.